[[{"header":{"parameterUnit":"m.s-1","parameterCategory":1,"la1":30.2991,"la2":30.254,"lo1":-89.0895,"lo2":-89.0444,"dy":0.0017,"dx":0.0017,"nx":28,"ny":28,"refTime":"2025-12-27T03:00:00:Z","depth":0,"parameterNumber":2,"parameterNumberName":"U-component_of_WINDS"},"data":[0,0,0,0,0,0,0,0,0,0,0,0,0,0,0,0,0,0,0,0,0,0,0,0,0,0,0,0,0,0,0,0,0,0,0,0,0,0,0,0,0,0,0,0,0,0,0,0,0,0,0,0,0,0,0,0,0,0,0.6378,0.6378,0,0.64,0.64,0.64,0.6428,0.6429,0.6429,0.643,0.6454,0.6454,0.6454,0,0,0,0,0,0,0,0,0,0,0,0,0,0.6363,0.6363,0.6377,0.6378,0.6378,0.64,0.64,0.64,0.6428,0.6429,0.6429,0.643,0.6453,0.6454,0.6454,0,0,0,0,0,0,0,0,0,0,0,0,0,0.6376,0.6363,0.6377,0.6395,0.6396,0.64,0.64,0.64,0.6428,0.6429,0.643,0.643,0.6453,0.6454,0.6454,0.6442,0,0,0.6455,0.6455,0,0,0,0,0,0,0,0,0.6375,0.6376,0.6392,0.6393,0.6395,0.6412,0.6404,0.6414,0.6428,0.6416,0.643,0.6431,0.6439,0.6441,0.6443,0.6443,0.6444,0.6455,0.6455,0.6455,0.6455,0,0,0,0,0,0,0,0.6374,0.6375,0.6386,0.6392,0.6394,0.6402,0.6405,0.6406,0.6424,0.6417,0.6419,0.6422,0.644,0.6443,0.6444,0.6445,0.6455,0.6455,0.6455,0.6456,0.644,0.6439,0,0,0,0,0,0,0.637,0.6374,0.6386,0.6387,0.6387,0.6402,0.6405,0.6406,0.6424,0.6427,0.6421,0.6423,0.6442,0.6444,0.6445,0.6435,0.6455,0.6456,0.6456,0.644,0.644,0.6439,0,0,0,0,0,0,0.637,0.6371,0.6385,0.6381,0.6384,0.6402,0.6403,0.6406,0.6409,0.6426,0.643,0.642,0.6443,0.6445,0.6444,0.6436,0.6456,0.6456,0.6441,0.644,0.6439,0.6412,0,0,0,0,0,0,0.6369,0.637,0.6365,0.6381,0.6384,0.6381,0.6402,0.6406,0.6409,0.6412,0.6427,0.643,0.6443,0.6443,0.6444,0.6437,0.6456,0.6442,0.6441,0.644,0.6414,0.641,0.6408,0,0,0,0,0,0.6368,0.6356,0.6365,0.6366,0.6377,0.6381,0.6383,0.6398,0.6408,0.6404,0.6416,0.6429,0.6437,0.6442,0.6444,0.6437,0.6442,0.6441,0.644,0.6415,0.6411,0.6408,0,0,0,0,0,0,0.6339,0.6358,0.6368,0.636,0.6369,0.6386,0.638,0.6393,0.6399,0.6401,0.6421,0.6424,0.6421,0.6429,0.6435,0.6428,0.6442,0.6441,0.6423,0.6419,0.6416,0.6414,0.6457,0,0,0,0,0,0.6331,0.6332,0.6349,0.6341,0.6345,0.6362,0.6364,0.6376,0.6385,0.6389,0.6401,0.641,0.6415,0.6417,0.6422,0.6415,0.642,0.6411,0.6408,0.6406,0.6404,0.6404,0.6401,0.6435,0.6435,0.6435,0,0,0.6316,0.6327,0.6326,0.6335,0.6343,0.6345,0.6365,0.6364,0.6366,0.6389,0.6389,0.6398,0.641,0.6407,0.6406,0.6413,0.6396,0.6404,0.6402,0.6402,0.6402,0.6399,0.6396,0.6434,0.6434,0.6434,0,0,0.6288,0.6296,0.6291,0.6299,0.6311,0.6323,0.6322,0.6338,0.6345,0.6345,0.6363,0.6366,0.6373,0.6381,0.6387,0.6366,0.638,0.6367,0.6351,0.635,0.6348,0.6346,0.634,0.6337,0.6366,0.6366,0.6366,0,0.6268,0.6269,0.6287,0.6286,0.6291,0.6313,0.6309,0.6316,0.6329,0.6332,0.6341,0.6352,0.6361,0.6361,0.6357,0.636,0.6361,0.6366,0.6347,0.6345,0.6343,0.6338,0.6335,0.6365,0.6365,0.6365,0.6365,0,0.6245,0.6246,0.6241,0.6253,0.6258,0.6255,0.6274,0.6276,0.6288,0.63,0.6302,0.6314,0.6323,0.6324,0.6335,0.6327,0.6332,0.6343,0.6357,0.6338,0.6334,0.6332,0.6363,0.6363,0.6364,0.6364,0,0,0.6197,0.6222,0.6219,0.6227,0.6243,0.6245,0.6245,0.6254,0.6257,0.6266,0.6268,0.6275,0.6286,0.6292,0.6305,0.6305,0.629,0.6316,0.6317,0.6312,0.6284,0.6276,0.6273,0.6299,0.6299,0.6299,0.6284,0,0.6174,0.6174,0.6191,0.6187,0.619,0.6212,0.6213,0.6224,0.6236,0.6241,0.6254,0.6259,0.6273,0.6277,0.6278,0.6292,0.6285,0.6293,0.6303,0.6303,0.6299,0.6271,0.6261,0.6246,0.6282,0.6282,0.6281,0,0.6145,0.6154,0.6151,0.617,0.6172,0.6171,0.6183,0.6187,0.6201,0.621,0.6218,0.6233,0.6237,0.625,0.6256,0.6262,0.6267,0.6275,0.6275,0.6276,0.6291,0.6273,0.6241,0.624,0.6279,0.6279,0.6279,0,0.6113,0.6124,0.6124,0.6129,0.6151,0.6151,0.616,0.6175,0.618,0.6191,0.6195,0.6205,0.6211,0.622,0.6239,0.6246,0.6243,0.6258,0.6252,0.6252,0.625,0.625,0.622,0.6252,0.6252,0.6252,0.6252,0,0.6085,0.6083,0.611,0.611,0.6109,0.613,0.6128,0.614,0.6153,0.6157,0.6177,0.6181,0.6204,0.6211,0.6226,0.623,0.6232,0.624,0.6244,0.6239,0.6238,0.6243,0.6245,0.6252,0.6252,0.6252,0.6252,0,0.6048,0.6066,0.6068,0.6089,0.6095,0.6093,0.6112,0.6114,0.6128,0.6133,0.6136,0.6158,0.6167,0.6187,0.6201,0.6211,0.6212,0.6219,0.6207,0.621,0.6203,0.6204,0.6176,0.6174,0.6206,0.6206,0.6206,0,0.6029,0.6028,0.605,0.6054,0.6063,0.6069,0.6075,0.6096,0.6102,0.612,0.612,0.6132,0.6141,0.6156,0.6174,0.6186,0.6194,0.6183,0.6195,0.6191,0.6195,0.6195,0.6196,0.618,0.618,0.6179,0.6179,0,0.5994,0.6004,0.6012,0.6024,0.6031,0.6041,0.6052,0.6055,0.608,0.6086,0.6096,0.6103,0.612,0.6131,0.6146,0.6157,0.6173,0.6175,0.6175,0.6169,0.6163,0.6168,0.6201,0.6176,0.6176,0.6176,0.6176,0.6176,0.5967,0.5968,0.5984,0.5993,0.6004,0.6015,0.6019,0.6034,0.6043,0.6057,0.607,0.6079,0.6097,0.6119,0.6129,0.6138,0.6145,0.6144,0.6144,0.6144,0.6142,0.6162,0.6141,0.6141,0.6141,0.6141,0.6141,0,0.5934,0.5946,0.5954,0.597,0.5978,0.5992,0.6007,0.6012,0.6021,0.6035,0.6045,0.6058,0.607,0.609,0.6105,0.6108,0.6116,0.6111,0.6111,0.6114,0.6134,0.6133,0.6105,0.6105,0.6105,0.6105,0.6105,0.6105,0.5918,0.5921,0.5933,0.5943,0.5956,0.5965,0.5972,0.5984,0.5996,0.6009,0.602,0.6033,0.605,0.6066,0.6079,0.6085,0.6089,0.6083,0.6091,0.6109,0.6112,0.6116,0.6115,0.6083,0.6083,0.6071,0.607,0.607]},{"header":{"parameterUnit":"m.s-1","parameterCategory":1,"la1":30.2991,"la2":30.254,"lo1":-89.0895,"lo2":-89.0444,"dy":0.0017,"dx":0.0017,"nx":28,"ny":28,"refTime":"2025-12-27T03:00:00:Z","depth":0,"parameterNumber":3,"parameterNumberName":"V-component_of_WINDS"},"data":[0,0,0,0,0,0,0,0,0,0,0,0,0,0,0,0,0,0,0,0,0,0,0,0,0,0,0,0,0,0,0,0,0,0,0,0,0,0,0,0,0,0,0,0,0,0,0,0,0,0,0,0,0,0,0,0,0,0,3.4422,3.4423,0,3.4493,3.4494,3.4494,3.451,3.451,3.4509,3.4509,3.4575,3.4578,3.458,0,0,0,0,0,0,0,0,0,0,0,0,0,3.4297,3.4299,3.4422,3.4423,3.4424,3.4493,3.4494,3.4495,3.451,3.451,3.4509,3.4509,3.4575,3.4577,3.458,0,0,0,0,0,0,0,0,0,0,0,0,0,3.4358,3.43,3.4422,3.444,3.4443,3.4493,3.4494,3.4495,3.451,3.451,3.4509,3.4508,3.4574,3.4577,3.458,3.4615,0,0,3.459,3.4592,0,0,0,0,0,0,0,0,3.4354,3.4362,3.4437,3.4439,3.4442,3.4492,3.4474,3.4535,3.4511,3.4485,3.4509,3.4508,3.4548,3.4553,3.4568,3.4618,3.4621,3.4591,3.4593,3.4594,3.4595,0,0,0,0,0,0,0,3.435,3.4359,3.445,3.4438,3.4441,3.4444,3.4451,3.4486,3.4519,3.4487,3.4488,3.4497,3.4549,3.4565,3.457,3.4622,3.4591,3.4594,3.4596,3.4597,3.4707,3.4708,0,0,0,0,0,0,3.4343,3.4356,3.4448,3.4452,3.4396,3.4446,3.4455,3.4477,3.4519,3.4525,3.4497,3.4497,3.4559,3.4566,3.4572,3.4618,3.4594,3.4597,3.4599,3.4706,3.4707,3.4708,0,0,0,0,0,0,3.4341,3.4352,3.4445,3.4404,3.4417,3.4449,3.4473,3.4478,3.4494,3.4527,3.4532,3.4507,3.4559,3.4567,3.4605,3.462,3.4599,3.4602,3.4705,3.4706,3.4708,3.4708,0,0,0,0,0,0,3.4337,3.435,3.4365,3.4405,3.4419,3.4478,3.4474,3.448,3.4501,3.4501,3.4538,3.4543,3.4559,3.46,3.4609,3.4624,3.4604,3.4704,3.4706,3.4707,3.4707,3.4709,3.4712,0,0,0,0,0,3.4333,3.436,3.4366,3.4377,3.4438,3.4479,3.4487,3.4507,3.4502,3.4516,3.4537,3.4542,3.4617,3.4604,3.4614,3.4631,3.4703,3.4705,3.4707,3.4706,3.4709,3.4711,0,0,0,0,0,0,3.4319,3.4366,3.4372,3.4414,3.4443,3.4482,3.4501,3.4509,3.4538,3.4537,3.4558,3.4566,3.4603,3.462,3.4605,3.4668,3.466,3.4664,3.4656,3.4659,3.4661,3.4656,3.4607,0,0,0,0,0,3.4321,3.4353,3.4391,3.4424,3.4439,3.4467,3.4486,3.4499,3.4529,3.454,3.4564,3.4591,3.4622,3.4641,3.467,3.4709,3.4718,3.4726,3.4728,3.4729,3.4733,3.4757,3.4762,3.4715,3.4715,3.4715,0,0,3.4325,3.4355,3.4373,3.4422,3.4446,3.4478,3.4477,3.4509,3.4533,3.4544,3.4583,3.4602,3.4633,3.4673,3.4691,3.4688,3.4748,3.4732,3.4733,3.4736,3.476,3.4764,3.4768,3.4716,3.4716,3.4716,0,0,3.435,3.4375,3.4407,3.4431,3.4468,3.4487,3.4495,3.4533,3.4547,3.4587,3.4597,3.4624,3.4674,3.4698,3.4716,3.4751,3.4757,3.4759,3.4772,3.4795,3.4799,3.4802,3.4816,3.4821,3.4763,3.4763,3.4763,0,3.435,3.4399,3.4421,3.4455,3.4476,3.4491,3.4523,3.4545,3.4589,3.4603,3.4599,3.4665,3.4687,3.4733,3.4742,3.4756,3.4766,3.4756,3.4797,3.48,3.4804,3.4818,3.4823,3.4763,3.4763,3.4763,3.4763,0,3.4398,3.4432,3.4453,3.4498,3.4522,3.4554,3.4581,3.4602,3.4613,3.4632,3.4673,3.47,3.4736,3.4748,3.4757,3.4796,3.4793,3.4793,3.4785,3.4808,3.4822,3.4827,3.4763,3.4763,3.4763,3.4763,0,0,3.4415,3.4475,3.4482,3.4504,3.4547,3.4572,3.4605,3.4643,3.4662,3.4691,3.472,3.4763,3.4764,3.4785,3.4797,3.4817,3.4846,3.4815,3.4816,3.4821,3.4892,3.4894,3.49,3.485,3.4851,3.4852,3.489,0,3.4446,3.4508,3.453,3.4581,3.4613,3.4628,3.4657,3.4686,3.4705,3.4734,3.4754,3.4786,3.4783,3.4796,3.4817,3.4838,3.4861,3.4836,3.4877,3.4878,3.487,3.4907,3.4908,3.4943,3.4896,3.4896,3.4897,0,3.449,3.4525,3.4579,3.4621,3.4635,3.4661,3.4698,3.4726,3.4759,3.4771,3.4796,3.4808,3.4842,3.4832,3.488,3.4863,3.4881,3.4894,3.4896,3.4901,3.489,3.4915,3.4955,3.4961,3.4905,3.4905,3.4904,0,3.45,3.4559,3.46,3.4618,3.4666,3.4685,3.4705,3.4738,3.476,3.4792,3.4807,3.4841,3.486,3.4886,3.4907,3.4897,3.4954,3.4945,3.4965,3.4965,3.4977,3.4977,3.5022,3.4986,3.4986,3.4986,3.4986,0,3.4533,3.4567,3.4606,3.4631,3.4669,3.4693,3.473,3.4751,3.478,3.481,3.4823,3.485,3.4875,3.4904,3.492,3.4959,3.4967,3.4978,3.4982,3.4978,3.4977,3.4991,3.4989,3.4987,3.4987,3.4987,3.4986,0,3.4551,3.4578,3.4624,3.4668,3.4679,3.4706,3.4742,3.4767,3.4787,3.4824,3.4834,3.4865,3.4902,3.4925,3.4969,3.498,3.5023,3.5025,3.5013,3.5015,3.5035,3.5034,3.5093,3.5103,3.5058,3.5058,3.5059,0,3.4571,3.4597,3.4645,3.4667,3.4689,3.4723,3.4747,3.4771,3.4795,3.4836,3.4856,3.4894,3.4926,3.4983,3.5008,3.5043,3.5048,3.5066,3.5053,3.5049,3.505,3.505,3.5053,3.5068,3.5069,3.5069,3.5069,0,3.4604,3.4617,3.4652,3.4692,3.4721,3.4753,3.4785,3.4801,3.4831,3.4857,3.4896,3.4921,3.4969,3.5006,3.5044,3.5064,3.5072,3.5073,3.508,3.5077,3.507,3.5076,3.5021,3.5072,3.5072,3.5072,3.5071,3.5071,3.4625,3.4651,3.4689,3.4728,3.4755,3.4785,3.4812,3.4837,3.487,3.4913,3.4925,3.4966,3.4999,3.5051,3.5072,3.5104,3.5101,3.5111,3.5113,3.5116,3.5118,3.5064,3.511,3.511,3.511,3.511,3.511,0,3.4661,3.4687,3.4723,3.4769,3.48,3.4807,3.4843,3.4867,3.4904,3.4936,3.4968,3.5013,3.505,3.508,3.5118,3.5138,3.5142,3.5147,3.5146,3.5151,3.5116,3.5108,3.5143,3.5143,3.5143,3.5143,3.5142,3.5142,3.4684,3.4728,3.4746,3.4804,3.4829,3.4872,3.4892,3.492,3.4946,3.4997,3.5029,3.5049,3.508,3.5121,3.5155,3.5163,3.5177,3.5181,3.5189,3.5157,3.5153,3.515,3.5142,3.5183,3.5183,3.5222,3.5222,3.5223]}]]